Starlink 11280

operational
NORAD ID: 61245 Int'l Des: 2024-175 Owner: SPXS Country: US Constellation: starlink
LEOCIRCULAR

Starlink 11280について

説明を読み込み中...

リアルタイム位置

3D地球を読み込み中...

次回通過

高度履歴

Altitude vs Time

uPlot chart will show altitude changes over time

軌道要素

1 61245U 24175C 25353.43564506 .00000734 00000-0 10917-4 0 9994
2 61245 53.1597 91.7573 0001175 60.4350 299.6785 15.69708441 70765
Epoch: Dec 19, 2025 • Age: 15 hours

現在のステータス

高度 364.5 km
速度 7.69 km/s
衛星直下点 -17.75°S, 38.68°W
打ち上げ日 Sep 25, 2024
運用期間 1.2 years
タイプ internet

技術仕様

分類 Payload
質量 960.00 kg
乾燥質量 910.00 kg
総質量 960.00 kg
長さ 0.30 m
直径 4.10 m
スパン 29.00 m
形状 Box + pan
製造者 SPXS
バスタイプ Starlink V2MD
フェーズステータス In Orbit
所有者/国 SPXS/US

大規模コンステレーション

Loading constellations...